Weather History for KMMU - February, 2013

Change the Weather History Date:

Saturday, February 16, 2013

  Actual Average Record
Temperature  
Mean Temperature 36 °F -  
Max Temperature 39 °F 41 °F 75 °F (1949)
Min Temperature 32 °F 19 °F -18 °F (1943)
Degree Days  
Heating Degree Days 30    
Moisture  
Dew Point 26 °F    
Average Humidity 70    
Maximum Humidity 93    
Minimum Humidity 41    
Precipitation  
Precipitation 0.00 in - - ()
Sea Level Pressure  
Sea Level Pressure 29.90 in    
Wind  
Wind Speed 4 mph (North)    
Max Wind Speed 14 mph    
Max Gust Speed 20 mph    
Visibility 9 miles    
Events Rain , Snow    
Averages and records for this station are not official NWS values.
T = Trace of Precipitation, MM = Missing Value Source: NWS Daily Summary

Daily Weather History Graph

Daily Weather History Graph

Search for Another Location

Airport or City:

Trip Planner

Search our weather history database for the weather conditions in past years. The results will help you decide how hot, cold, wet, or windy it might be!

Date:

Astronomy

Feb. 16, 2013 Rise Set
Actual Time 6:50 AM EST 5:33 PM EST
Civil Twilight 6:22 AM EST 6:01 PM EST
Nautical Twilight 5:50 AM EST 6:34 PM EST
Astronomical Twilight 5:18 AM EST 7:05 PM EST
Moon 9:58 AM EST (2/16) No Moon Set
Length of Visible Light 11h 39m
Length of Day
10h 43m
Waxing Crescent, 39% of the Moon is Illuminated
Feb 16
Waxing Crescent
Feb 17
First Quarter
Feb 25
Full
Mar 4
Last Quarter
Mar 11
New

Hourly Weather History & Observations

Time (EST) Temp. Windchill Dew Point Humidity Pressure Visibility Wind Dir Wind Speed Gust Speed Precip Events Conditions
12:15 AM 39.2 °F 35.9 °F 33.8 °F 81% 29.98 in 5.0 mi NW 4.6 mph - N/A Rain Light Rain
12:35 AM 39.2 °F 37.0 °F 33.8 °F 81% 29.98 in 7.0 mi NNW 3.5 mph - N/A Rain Light Rain
12:55 AM 37.4 °F - 33.8 °F 87% 29.98 in 10.0 mi Calm Calm - N/A Rain Light Rain
1:15 AM 37.4 °F - 33.8 °F 87% 29.97 in 10.0 mi Calm Calm - N/A Rain Light Rain
1:35 AM 37.4 °F - 33.8 °F 87% 29.97 in 7.0 mi Calm Calm - N/A Rain Light Rain
1:55 AM 37.4 °F - 33.8 °F 87% 29.96 in 7.0 mi Calm Calm - N/A Rain Light Rain
2:15 AM 37.4 °F - 33.8 °F 87% 29.95 in 10.0 mi Calm Calm - N/A Rain Light Rain
2:35 AM 37.4 °F - 33.8 °F 87% 29.95 in 10.0 mi Calm Calm - N/A   Overcast
2:55 AM 37.4 °F - 35.6 °F 93% 29.95 in 10.0 mi Calm Calm - N/A   Overcast
3:15 AM 37.4 °F - 33.8 °F 87% 29.94 in 7.0 mi Calm Calm - N/A Rain Light Rain
3:35 AM 37.4 °F - 33.8 °F 87% 29.93 in 4.0 mi Calm Calm - N/A   Overcast
3:55 AM 35.6 °F - 33.8 °F 93% 29.93 in 4.0 mi Calm Calm - N/A   Overcast
4:15 AM 37.4 °F 34.9 °F 33.8 °F 87% 29.93 in 10.0 mi NNE 3.5 mph - N/A   Overcast
4:35 AM 37.4 °F 34.9 °F 33.8 °F 87% 29.94 in 10.0 mi NE 3.5 mph - N/A   Overcast
4:55 AM 37.4 °F 34.9 °F 33.8 °F 87% 29.95 in 10.0 mi NW 3.5 mph - N/A Snow Light Snow
5:15 AM 37.4 °F 33.8 °F 33.8 °F 87% 29.95 in 10.0 mi NNE 4.6 mph - N/A Rain Light Rain
5:35 AM 35.6 °F 31.7 °F 33.8 °F 93% 29.95 in 10.0 mi NNE 4.6 mph - N/A   Overcast
6:45 AM 33.8 °F 28.6 °F 32.0 °F 93% 29.94 in 7.0 mi NE 5.8 mph - N/A   Overcast
8:45 AM 33.8 °F 28.6 °F 30.2 °F 87% 29.97 in 7.0 mi North 5.8 mph - N/A   Overcast
10:45 AM 35.6 °F 28.6 °F 24.8 °F 65% 29.94 in 10.0 mi North 9.2 mph 13.8 mph N/A   Overcast
12:45 PM 37.4 °F 30.3 °F 24.8 °F 60% 29.90 in 10.0 mi NNW 10.4 mph 15.0 mph N/A   Overcast
1:45 PM 37.4 °F 30.8 °F 23.0 °F 56% 29.89 in 15.0 mi NNW 9.2 mph 13.8 mph N/A   Overcast
2:45 PM 37.4 °F 29.8 °F 19.4 °F 48% 29.86 in 10.0 mi North 11.5 mph - N/A   Overcast
3:45 PM 35.6 °F 29.9 °F 19.4 °F 52% 29.88 in 10.0 mi North 6.9 mph - N/A   Overcast
4:45 PM 35.6 °F 31.7 °F 19.4 °F 52% 29.86 in 10.0 mi North 4.6 mph - N/A   Overcast
5:45 PM 33.8 °F 27.0 °F 17.6 °F 52% 29.86 in 10.0 mi North 8.1 mph - N/A   Overcast
7:45 PM 33.8 °F 27.0 °F 17.6 °F 52% 29.84 in - North 8.1 mph 11.5 mph N/A   Overcast
8:45 PM 32.0 °F 22.1 °F 17.6 °F 55% 29.83 in 10.0 mi North 13.8 mph 19.6 mph N/A   Overcast
9:45 PM 32.0 °F 24.2 °F 17.6 °F 55% 29.83 in 7.0 mi North 9.2 mph 15.0 mph N/A   Overcast
9:55 PM 33.8 °F 26.4 °F 14.0 °F 44% 29.82 in 10.0 mi North 9.2 mph - N/A   Overcast
10:15 PM 32.0 °F 24.2 °F 12.2 °F 44% 29.81 in 10.0 mi NNW 9.2 mph 16.1 mph N/A   Overcast
10:35 PM 32.0 °F 24.2 °F 12.2 °F 44% 29.79 in 10.0 mi North 9.2 mph - N/A   Overcast
10:55 PM 32.0 °F 24.2 °F 12.2 °F 44% 29.77 in 10.0 mi North 9.2 mph - N/A   Overcast
11:15 PM 32.0 °F 23.0 °F 12.2 °F 44% 29.77 in 10.0 mi North 11.5 mph 17.3 mph N/A   Overcast
11:35 PM 32.0 °F 22.1 °F 10.4 °F 41% 29.76 in 10.0 mi NNW 13.8 mph - N/A   Overcast
11:55 PM 32.0 °F 25.6 °F 10.4 °F 41% 29.76 in 10.0 mi NNW 6.9 mph 18.4 mph N/A   Overcast